RH
18 16 15 12 10 8 8 9 9 7 7 7 8 9 8 8 9 10 10 10 11 15 16 14 10 10 12 12 13 16 12 11 13 17 19 25 29 50 51 43 40 34 29 25 22
19 16 15 14 12 10 9 9 11 11 10 9 8 8 7 6 10 12 7 8 11 12 14 16 12 12 14 18 18 17 13 13 19 25 26 22 20 23 44 52 48 40 32 27 24
20 18 17 16 15 13 12 10 11 12 10 8 8 8 7 7 8 13 8 11 13 13 12 13 16 12 15 16 16 15 13 16 23 26 26 22 13 14 16 39 54 53 37 30 25
22 20 18 17 14 14 13 12 11 11 10 9 8 8 8 8 8 11 10 10 13 15 18 15 14 19 16 12 13 13 14 15 20 25 25 20 16 9 9 15 42 56 47 35 29
22 21 19 16 13 12 11 12 12 11 10 9 8 8 7 8 8 7 11 11 11 15 18 19 25 22 20 20 17 11 12 12 14 18 22 23 16 12 8 10 18 43 54 44 32
21 22 21 17 14 11 10 11 12 11 10 9 8 7 7 7 7 9 11 11 11 13 17 19 23 27 26 22 22 19 11 11 12 14 15 22 20 16 11 10 13 20 47 52 44
63 22 22 20 18 15 13 12 11 11 11 10 8 7 6 6 7 7 8 10 12 16 17 18 22 31 36 34 26 25 21 12 11 12 16 25 18 13 17 16 14 16 27 56 53
55 67 23 21 21 19 17 16 15 14 12 11 10 9 8 7 7 6 7 8 10 15 19 18 19 24 38 47 38 33 25 19 17 20 21 32 11 20 18 20 15 14 20 34 63
34 48 68 34 20 21 20 19 19 17 15 13 11 11 11 9 8 9 9 8 10 16 20 19 20 21 27 48 53 46 39 35 28 32 30 29 13 23 21 17 16 16 15 21 43
21 31 40 64 53 22 20 20 20 20 19 19 18 16 13 11 11 11 10 9 8 10 15 25 25 21 26 33 42 56 53 48 41 44 43 27 15 16 20 14 14 16 14 15 19
55 31 22 37 59 60 36 19 19 20 21 21 18 19 18 15 13 12 12 11 10 9 12 19 20 20 35 44 39 32 47 46 42 34 32 31 22 19 19 20 16 16 14 12 14
4 46 36 23 27 48 59 55 41 21 18 20 20 20 20 18 16 14 15 14 12 12 14 15 16 26 31 30 35 43 36 31 28 35 33 32 22 22 20 19 21 19 16 12 12
3 4 31 24 37 22 35 49 60 54 36 20 18 19 20 20 19 20 21 21 17 15 18 21 22 27 26 35 48 54 52 54 49 58 52 39 21 24 21 23 26 24 19 15 10
3 6 41 9 21 36 21 25 41 57 56 49 34 20 19 19 20 20 25 26 24 21 22 19 21 42 62 61 74 64 73 70 66 64 54 52 24 31 26 24 22 23 21 15 12
3 17 100 5 5 13 38 24 19 31 45 45 44 40 27 21 22 25 28 30 26 22 21 23 26 52 51 65 77 59 76 71 70 66 55 50 42 20 31 22 21 23 22 16 15
4 47 100 99 13 6 25 28 22 26 26 32 34 41 38 28 26 27 30 29 21 23 33 46 59 67 76 81 80 80 84 89 90 81 51 49 53 18 20 25 23 25 28 23 18
56 100 100 100 88 16 12 26 30 24 28 28 35 51 52 40 30 28 26 23 36 60 67 70 67 66 71 83 98 100 100 100 100 94 56 50 51 23 20 25 26 30 32 26 20
100 95 98 100 83 34 10 22 25 25 25 31 40 48 41 27 26 28 33 74 67 43 34 32 32 35 38 75 100 100 100 100 100 84 82 88 41 28 26 32 30 31 32 27 21
99 94 80 100 100 78 18 14 21 26 27 40 52 50 28 24 31 65 51 16 16 23 30 32 28 42 57 100 99 98 99 98 100 100 100 84 43 34 38 29 29 36 41 29 23
93 100 100 100 80 81 56 18 33 40 39 55 53 40 29 34 74 22 11 15 19 19 29 37 31 47 67 85 89 96 100 100 100 91 88 47 46 36 35 29 32 35 44 36 27
100 100 100 100 100 100 44 37 39 44 62 58 41 28 32 84 34 14 15 25 23 24 29 29 29 42 45 42 61 92 83 79 96 85 59 43 34 30 21 33 36 33 54 51 38
100 99 100 100 98 70 34 55 52 57 68 49 31 30 64 80 22 17 21 22 37 60 58 64 62 97 99 94 75 58 66 77 78 72 57 47 30 23 28 36 100 59 47 49 45
100 100 100 100 60 44 36 66 65 86 64 33 32 46 92 82 17 15 18 22 29 54 86 99 90 95 97 100 100 91 89 88 76 64 50 41 39 48 94 68 98 93 77 76 70
97 99 100 97 75 99 83 66 81 78 39 36 55 74 87 65 16 15 32 34 37 74 88 97 98 100 100 100 100 99 98 100 97 46 33 19 90 99 98 96 93 98 97 96 70
100 97 96 53 69 84 92 80 100 53 43 73 64 68 92 61 22 16 30 47 74 97 96 99 100 100 100 98 99 100 67 47 25 27 33 54 94 92 96 98 96 96 98 75 60
100 100 93 95 79 91 100 96 64 52 74 79 68 83 100 61 25 21 37 67 88 100 99 100 99 100 94 93 80 42 21 17 21 30 36 86 99 98 98 98 93 86 99 84 72
99 100 100 86 80 76 87 99 59 62 80 72 86 92 100 52 29 35 57 71 93 97 100 100 96 100 93 80 62 39 47 35 38 88 98 98 99 99 91 93 86 92 99 85 77
Wind_Speed
37 35 35 36 36 37 37 35 34 34 34 36 35 33 31 30 28 24 26 28 30 31 33 32 32 32 32 32 32 32 34 25 21 23 24 31 36 38 35 32 32 30 29 28 30
36 32 31 30 32 32 33 34 33 30 31 32 32 31 30 29 26 24 28 23 27 29 31 36 35 36 36 34 36 36 35 26 23 23 25 36 39 39 40 35 32 31 30 29 30
36 32 30 30 29 28 29 30 31 29 30 31 32 30 29 28 27 24 27 25 24 28 29 32 41 41 42 40 39 37 35 30 27 26 29 35 41 41 39 40 31 32 34 32 32
36 34 32 31 29 26 26 26 27 28 27 29 29 28 27 28 28 25 29 26 27 26 29 31 34 38 47 48 45 45 38 35 32 30 29 33 39 39 39 37 39 35 36 34 33
36 36 35 34 31 29 27 26 25 25 25 27 27 27 27 27 28 27 25 27 29 29 30 31 33 38 40 44 51 53 43 41 39 37 35 35 37 40 38 38 38 40 37 37 34
35 38 38 36 34 32 30 28 26 25 25 25 25 26 27 27 27 27 27 27 29 31 31 32 34 36 37 38 41 52 51 45 43 39 39 39 37 40 38 40 37 38 39 38 37
38 37 41 39 37 35 33 31 29 28 26 26 25 25 27 26 25 26 27 28 29 30 32 33 33 35 35 37 38 38 47 50 47 45 42 40 40 38 36 39 37 38 40 39 40
43 41 40 41 41 39 37 36 33 31 29 28 27 26 26 27 25 26 27 28 29 31 33 34 35 36 38 38 38 40 43 45 44 43 44 43 36 38 37 38 38 36 40 41 42
44 46 44 41 42 42 41 39 37 34 31 30 29 27 27 29 28 27 29 31 31 32 33 36 37 35 38 41 43 42 40 41 44 43 47 46 41 37 39 41 38 36 40 41 46
47 46 48 47 43 42 43 42 40 37 35 33 30 30 30 29 31 30 30 31 32 33 35 38 39 39 38 38 43 43 47 46 47 48 48 47 47 45 42 46 43 37 39 43 43
51 51 46 51 49 46 43 41 41 41 39 38 36 33 32 31 33 34 33 32 34 34 38 41 42 42 37 37 41 49 54 53 53 53 52 52 53 50 47 47 46 41 41 43 43
54 55 53 49 48 50 47 43 42 42 40 40 39 37 36 34 33 36 34 35 38 38 42 44 43 43 44 45 46 48 52 55 54 52 57 55 55 54 53 51 49 46 42 45 44
58 57 59 56 52 49 47 48 47 44 42 40 41 39 40 40 38 36 40 39 40 42 43 42 42 44 48 48 47 46 48 52 53 52 56 59 56 54 53 53 51 50 47 47 46
60 56 57 60 59 52 46 46 48 45 44 41 40 41 41 43 43 44 41 41 42 45 48 48 46 46 46 46 46 47 48 52 54 56 57 57 60 53 53 51 49 49 49 49 49
58 61 47 61 58 52 48 49 44 42 45 42 41 40 40 40 43 42 43 44 45 47 50 49 49 49 52 50 51 52 50 53 55 57 59 58 65 56 54 53 52 54 53 53 51
53 48 48 48 57 54 54 50 43 41 42 38 37 37 38 41 41 41 44 46 48 51 51 49 50 52 49 48 50 49 50 51 53 55 63 57 59 57 51 49 50 52 51 52 49
59 49 45 43 43 49 53 50 46 44 38 37 37 39 40 39 38 38 43 47 49 51 51 51 49 50 50 49 50 49 46 48 51 56 65 59 58 57 47 42 48 46 46 50 48
58 50 46 36 38 44 51 50 48 42 38 38 36 36 35 33 33 40 42 43 46 49 50 50 49 46 43 44 42 43 40 43 47 53 57 52 63 52 42 38 40 39 45 49 46
58 49 45 39 37 39 46 49 44 39 37 35 35 35 30 30 34 34 35 36 34 31 30 30 26 21 28 34 39 37 38 33 40 46 49 48 48 48 37 36 36 40 40 47 43
58 46 42 43 37 38 43 46 43 39 35 32 33 31 27 29 25 17 17 16 13 12 16 15 18 21 24 26 30 31 33 32 34 35 39 33 40 36 32 32 34 35 36 40 41
46 48 39 40 43 40 45 42 40 36 32 32 29 27 27 21 12 12 12 11 11 14 13 16 20 18 25 25 27 34 38 42 40 38 35 33 37 34 28 28 31 37 33 33 33
49 50 40 42 36 36 43 41 38 34 33 28 25 27 19 13 14 13 14 17 20 21 20 21 24 22 21 27 27 33 34 33 37 38 37 32 30 29 28 33 30 36 38 33 37
48 19 32 41 29 31 32 30 31 31 28 25 26 21 15 13 20 15 17 19 22 24 18 21 24 27 19 19 21 38 32 36 33 34 38 35 18 26 23 36 33 35 33 33 35
44 24 40 35 33 29 23 27 28 26 26 26 21 15 15 17 22 20 15 16 19 19 18 24 24 24 25 25 16 8 19 26 28 35 33 34 19 24 27 24 24 34 34 32 31
32 19 31 37 32 27 28 30 26 26 27 23 15 13 17 17 23 22 16 11 14 13 11 16 21 26 18 9 12 9 3 11 18 19 29 24 22 19 26 25 27 22 25 28 27
25 29 34 31 29 25 25 22 23 28 24 17 15 17 15 15 22 22 14 5 6 7 11 14 23 19 11 8 6 5 5 20 27 27 26 27 19 31 26 23 25 24 18 20 22
31 34 28 24 28 29 22 21 23 21 18 17 20 16 14 18 16 13 10 6 5 14 9 12 16 15 5 1 4 16 22 18 24 27 12 14 23 39 31 28 26 22 20 20 19
Wind_Direction
255 253 251 248 245 246 248 245 238 233 235 239 241 240 240 243 247 252 256 260 260 255 255 257 256 249 242 240 241 242 244 242 247 249 243 249 248 244 244 240 243 245 246 246 245
252 247 245 245 243 241 244 246 241 233 232 236 241 243 244 242 245 249 254 261 263 259 251 247 247 243 242 241 245 248 247 249 250 250 241 241 243 244 240 240 241 243 245 246 245
250 245 240 239 241 240 240 242 243 236 231 236 241 245 248 250 250 252 257 261 261 260 256 251 245 244 245 246 248 249 248 248 247 244 237 239 245 245 244 239 236 242 241 240 245
249 244 242 238 238 239 241 241 241 238 234 238 243 247 250 254 255 253 257 264 266 265 261 257 255 253 250 249 249 250 248 247 247 249 250 243 245 251 247 239 233 236 243 241 244
249 245 242 241 237 235 238 241 242 242 239 239 243 246 250 254 256 258 261 264 267 268 264 260 259 256 254 253 249 250 249 247 248 250 253 251 247 250 253 246 235 232 240 245 243
253 246 243 241 240 237 235 237 241 242 242 242 244 246 250 251 259 264 263 263 267 269 271 267 261 263 260 259 257 248 246 247 247 250 255 256 253 251 253 256 244 237 236 243 246
251 250 246 243 240 239 238 237 240 243 244 246 247 249 252 256 261 264 266 267 269 271 273 269 265 262 261 256 255 251 249 247 249 253 256 254 247 251 254 256 257 245 237 237 245
247 250 248 245 243 242 240 241 240 242 244 246 250 253 258 258 262 267 270 271 270 268 269 272 269 265 260 256 253 250 245 243 247 250 253 250 244 250 250 248 250 247 244 237 241
248 245 248 247 245 244 243 243 244 244 244 246 251 256 260 261 264 269 274 274 272 271 270 271 272 268 265 258 254 253 253 250 249 248 247 248 244 247 247 249 248 247 245 243 239
250 246 243 245 245 244 244 243 244 246 246 248 251 256 259 266 268 271 273 276 277 276 274 271 271 272 268 263 260 256 252 248 245 245 247 245 243 244 241 246 245 243 245 244 244
241 245 242 241 243 244 243 243 244 245 245 249 252 256 262 267 272 273 274 279 278 277 275 272 273 275 269 267 263 254 250 250 250 251 249 246 243 243 241 242 248 244 240 245 243
237 236 241 239 240 240 242 244 243 246 247 248 252 257 260 263 268 272 275 277 280 280 280 278 277 271 268 266 264 261 256 253 253 254 255 249 245 244 243 244 249 247 245 244 244
231 229 234 237 238 239 239 240 243 246 248 249 252 256 261 262 265 269 276 280 279 279 279 276 275 270 267 267 266 262 258 257 255 251 251 251 245 244 244 246 247 250 247 246 245
226 220 231 232 236 235 237 240 242 244 247 248 252 254 257 261 266 270 274 277 279 282 280 279 277 272 267 263 263 260 259 257 254 253 251 253 251 240 243 243 245 245 244 244 244
217 212 225 230 231 230 229 234 238 241 247 247 249 255 260 262 264 268 274 278 281 280 279 278 272 267 265 264 260 259 255 255 254 252 251 248 251 244 240 242 245 245 244 240 239
208 208 213 229 228 224 226 230 233 236 242 247 252 255 258 261 266 272 278 281 282 282 281 279 274 271 266 261 260 259 257 254 252 251 251 246 248 246 244 242 242 241 240 239 235
187 195 201 228 234 225 224 225 227 231 238 244 250 254 257 263 271 277 280 283 285 285 283 281 274 269 261 256 252 252 252 253 250 248 252 250 246 255 249 241 237 237 231 230 229
183 190 193 220 225 226 219 221 224 227 231 239 248 254 261 267 276 281 287 290 288 286 284 279 272 270 258 251 251 248 246 245 253 253 256 252 250 256 249 237 232 233 227 225 223
176 182 194 211 211 220 217 218 218 223 229 235 245 254 263 272 279 289 296 295 292 286 282 282 283 265 257 256 250 247 246 258 255 252 253 250 248 242 235 227 225 224 228 224 220
171 170 195 201 218 219 219 213 214 219 227 235 245 254 261 273 285 302 317 316 306 310 300 296 286 271 259 251 245 244 243 240 242 246 247 247 240 235 217 217 223 221 226 219 218
169 189 194 205 210 215 212 206 209 213 222 232 242 252 264 278 262 281 299 306 318 319 311 288 279 275 265 269 264 251 248 246 240 239 241 237 232 217 214 209 213 212 208 211 207
167 191 190 199 194 215 206 203 205 210 222 231 239 251 267 264 241 253 286 293 317 316 288 295 284 279 278 264 257 255 247 239 238 235 235 234 218 220 206 196 180 195 209 192 199
167 146 178 190 203 206 204 207 202 211 222 224 237 256 267 252 237 259 272 288 302 315 310 301 291 298 302 270 267 250 246 243 239 229 219 222 183 182 188 210 169 168 178 195 205
169 174 184 190 208 200 197 200 208 217 217 224 239 253 273 249 242 256 273 282 297 312 298 291 295 311 313 309 281 285 245 239 231 223 200 208 173 165 168 189 184 168 178 187 194
178 185 186 198 200 188 194 201 205 214 218 230 237 248 268 257 249 251 280 300 299 293 312 313 335 348 23 343 275 252 25 207 220 189 195 185 175 162 166 174 159 161 181 191 194
202 193 193 186 195 182 197 194 209 214 219 226 227 249 257 254 248 254 268 273 282 336 336 354 11 44 11 351 347 13 202 184 176 182 182 174 185 167 169 165 164 160 170 185 188
192 192 194 187 192 205 220 212 216 218 222 230 224 247 253 240 239 237 236 228 327 352 19 61 67 78 29 186 190 153 146 157 170 166 175 162 143 163 173 170 168 155 175 185 187